When you browse on this site, cookies collect data to enhance your experience and personalize the content and advertising you see.
Visit our Privacy Policy to learn more. By continuing to use the site, you agree to this use of cookies and data.
  • In Portugal
  • List of Countries
  • For 7 days
  • Water Temperature
  • Weather Map
  • Weather Widgets
  • user-avatar
    Login

    Hourly Weather Krylovka

    Today, 26 August, Monday

    Time Temperature Precipitation Wind Pressure Humidity
    00:00 +13°C° 0 mm 0 mps 749 mmHg 94%
    01:00 +13°C° 0 mm 0 mps 749 mmHg 95%
    02:00 +13°C° 0 mm 0 mps 749 mmHg 95%
    03:00 +12°C° 0 mm 0 mps 749 mmHg 95%
    04:00 +12°C° 0 mm 0 mps 749 mmHg 95%
    05:00 +13°C° 0 mm 1 mps 749 mmHg 96%
    06:00 +13°C° 0 mm 1 mps 750 mmHg 96%
    07:00 +16°C° 0 mm 1 mps 750 mmHg 88%
    08:00 +19°C° 0 mm 1 mps 750 mmHg 80%
    09:00 +20°C° 0 mm 0 mps 750 mmHg 71%
    10:00 +24°C° 0 mm 1 mps 749 mmHg 67%
    11:00 +25°C° 0 mm 1 mps 749 mmHg 62%
    12:00 +26°C° 0 mm 1 mps 749 mmHg 58%
    13:00 +26°C° 0.1 mm 1 mps 748 mmHg 59%
    14:00 +26°C° 0.1 mm 1 mps 748 mmHg 60%
    15:00 +26°C° 0.1 mm 1 mps 748 mmHg 60%
    16:00 +25°C° 0.1 mm 1 mps 748 mmHg 68%
    17:00 +22°C° 0.1 mm 0 mps 748 mmHg 75%
    18:00 +20°C° 0.1 mm 0 mps 748 mmHg 83%
    19:00 +19°C° 0 mm 0 mps 748 mmHg 86%
    20:00 +18°C° 0 mm 0 mps 749 mmHg 89%
    21:00 +18°C° 0 mm 1 mps 749 mmHg 92%
    22:00 +18°C° 0 mm 1 mps 749 mmHg 93%
    23:00 +16°C° 0 mm 1 mps 749 mmHg 94%

    Tomorrow, 27 August, Tuesday

    Time Temperature Precipitation Wind Pressure Humidity
    00:00 +16°C° 0 mm 1 mps 749 mmHg 95%
    01:00 +16°C° 0 mm 1 mps 748 mmHg 95%
    02:00 +16°C° 0 mm 1 mps 748 mmHg 96%
    03:00 +15°C° 0 mm 1 mps 748 mmHg 96%
    04:00 +15°C° 0 mm 1 mps 748 mmHg 96%
    05:00 +15°C° 0 mm 1 mps 748 mmHg 96%
    06:00 +15°C° 0 mm 2 mps 748 mmHg 95%
    07:00 +17°C° 0 mm 2 mps 748 mmHg 87%
    08:00 +20°C° 0 mm 2 mps 748 mmHg 79%
    09:00 +23°C° 0 mm 2 mps 748 mmHg 71%
    10:00 +25°C° 0.1 mm 2 mps 748 mmHg 69%
    11:00 +26°C° 0.1 mm 3 mps 748 mmHg 68%
    12:00 +27°C° 0.1 mm 3 mps 748 mmHg 66%
    13:00 +26°C° 1.3 mm 3 mps 747 mmHg 74%
    14:00 +26°C° 1.3 mm 2 mps 747 mmHg 82%
    15:00 +25°C° 1.3 mm 2 mps 747 mmHg 90%
    16:00 +24°C° 1.1 mm 2 mps 747 mmHg 91%
    17:00 +23°C° 1.1 mm 1 mps 747 mmHg 93%
    18:00 +21°C° 1.1 mm 1 mps 747 mmHg 95%
    19:00 +21°C° 0.2 mm 1 mps 747 mmHg 95%
    20:00 +21°C° 0.2 mm 1 mps 747 mmHg 96%
    21:00 +20°C° 0.2 mm 1 mps 748 mmHg 96%
    22:00 +20°C° 0.6 mm 1 mps 748 mmHg 97%
    23:00 +20°C° 0.6 mm 1 mps 748 mmHg 97%

    Day after tomorrow, 28 August, Wednesday

    Time Temperature Precipitation Wind Pressure Humidity
    00:00 +20°C° 0.6 mm 1 mps 747 mmHg 98%
    01:00 +20°C° 1.6 mm 1 mps 747 mmHg 98%
    02:00 +20°C° 1.6 mm 1 mps 747 mmHg 98%
    03:00 +19°C° 1.6 mm 1 mps 747 mmHg 98%
    04:00 +19°C° 0.4 mm 1 mps 746 mmHg 98%
    05:00 +19°C° 0.4 mm 1 mps 746 mmHg 98%
    06:00 +19°C° 0.4 mm 1 mps 746 mmHg 98%
    07:00 +19°C° 0.4 mm 1 mps 746 mmHg 97%
    08:00 +20°C° 0.4 mm 1 mps 746 mmHg 97%
    09:00 +20°C° 0.4 mm 1 mps 746 mmHg 96%
    10:00 +21°C° 0.8 mm 1 mps 746 mmHg 93%
    11:00 +21°C° 0.8 mm 2 mps 746 mmHg 91%
    12:00 +24°C° 0.8 mm 2 mps 745 mmHg 88%
    13:00 +24°C° 1.6 mm 2 mps 745 mmHg 89%
    14:00 +24°C° 1.6 mm 2 mps 744 mmHg 89%
    15:00 +24°C° 1.6 mm 2 mps 744 mmHg 89%
    16:00 +23°C° 0.9 mm 1 mps 744 mmHg 90%
    17:00 +23°C° 0.9 mm 1 mps 744 mmHg 90%
    18:00 +22°C° 0.9 mm 1 mps 744 mmHg 91%
    19:00 +21°C° 0.5 mm 1 mps 744 mmHg 92%
    20:00 +20°C° 0.5 mm 1 mps 744 mmHg 93%
    21:00 +19°C° 0.5 mm 1 mps 744 mmHg 95%
    22:00 +19°C° 0.8 mm 1 mps 744 mmHg 95%
    23:00 +19°C° 0.8 mm 1 mps 744 mmHg 96%

    29 August, Thursday

    Time Temperature Precipitation Wind Pressure Humidity
    00:00 +18°C° 0.8 mm 1 mps 744 mmHg 96%
    01:00 +18°C° 0.4 mm 1 mps 744 mmHg 96%
    02:00 +16°C° 0.4 mm 1 mps 743 mmHg 96%
    03:00 +16°C° 0.4 mm 1 mps 743 mmHg 96%
    04:00 +16°C° 0.1 mm 1 mps 743 mmHg 96%
    05:00 +16°C° 0.1 mm 1 mps 743 mmHg 96%
    06:00 +16°C° 0.1 mm 1 mps 743 mmHg 97%
    07:00 +18°C° 0 mm 1 mps 743 mmHg 92%
    08:00 +20°C° 0 mm 1 mps 743 mmHg 88%
    09:00 +22°C° 0 mm 1 mps 743 mmHg 83%
    10:00 +24°C° 0.2 mm 1 mps 743 mmHg 76%
    11:00 +26°C° 0.2 mm 1 mps 743 mmHg 69%
    12:00 +27°C° 0.2 mm 1 mps 743 mmHg 62%
    13:00 +27°C° 0.9 mm 1 mps 743 mmHg 68%
    14:00 +26°C° 0.9 mm 1 mps 742 mmHg 75%
    15:00 +25°C° 0.9 mm 2 mps 742 mmHg 82%
    16:00 +24°C° 1.4 mm 1 mps 742 mmHg 85%
    17:00 +23°C° 1.4 mm 1 mps 742 mmHg 89%
    18:00 +20°C° 1.4 mm 0 mps 742 mmHg 92%
    19:00 +21°C° 1.5 mm 1 mps 743 mmHg 93%
    20:00 +20°C° 1.5 mm 1 mps 743 mmHg 94%
    21:00 +19°C° 1.5 mm 1 mps 743 mmHg 95%
    22:00 +19°C° 1.5 mm 1 mps 743 mmHg 96%
    23:00 +18°C° 1.5 mm 1 mps 743 mmHg 97%

    30 August, Friday

    Time Temperature Precipitation Wind Pressure Humidity
    00:00 +18°C° 1.5 mm 1 mps 743 mmHg 97%
    01:00 +18°C° 0.3 mm 1 mps 743 mmHg 97%
    02:00 +16°C° 0.3 mm 1 mps 743 mmHg 97%
    03:00 +16°C° 0.3 mm 1 mps 743 mmHg 97%
    04:00 +16°C° 0 mm 1 mps 743 mmHg 97%
    05:00 +16°C° 0 mm 1 mps 743 mmHg 98%
    06:00 +16°C° 0 mm 2 mps 744 mmHg 98%
    07:00 +18°C° 0.1 mm 2 mps 744 mmHg 95%
    08:00 +19°C° 0.1 mm 2 mps 744 mmHg 91%
    09:00 +21°C° 0.1 mm 2 mps 744 mmHg 88%
    10:00 +21°C° 1.1 mm 2 mps 744 mmHg 88%
    11:00 +23°C° 1.1 mm 2 mps 743 mmHg 87%
    12:00 +23°C° 1.1 mm 2 mps 743 mmHg 87%
    13:00 +23°C° 1.1 mm 2 mps 743 mmHg 87%
    14:00 +23°C° 1.1 mm 1 mps 743 mmHg 87%
    15:00 +24°C° 1.1 mm 1 mps 743 mmHg 88%
    16:00 +23°C° 1.2 mm 1 mps 743 mmHg 89%
    17:00 +21°C° 1.2 mm 2 mps 743 mmHg 90%
    18:00 +20°C° 1.2 mm 2 mps 743 mmHg 92%
    19:00 +20°C° 1.2 mm 1 mps 743 mmHg 93%
    20:00 +19°C° 1.2 mm 1 mps 744 mmHg 95%
    21:00 +18°C° 1.2 mm 1 mps 744 mmHg 96%
    22:00 +18°C° 0.3 mm 1 mps 744 mmHg 96%
    23:00 +16°C° 0.3 mm 1 mps 744 mmHg 96%

    31 August, Saturday

    Time Temperature Precipitation Wind Pressure Humidity
    00:00 +16°C° 0.3 mm 1 mps 744 mmHg 97%
    01:00 +16°C° 0.2 mm 1 mps 744 mmHg 97%
    02:00 +16°C° 0.2 mm 1 mps 744 mmHg 97%
    03:00 +15°C° 0.2 mm 1 mps 745 mmHg 97%
    04:00 +16°C° 0.2 mm 1 mps 745 mmHg 97%
    05:00 +16°C° 0.2 mm 1 mps 745 mmHg 97%
    06:00 +16°C° 0.2 mm 1 mps 745 mmHg 97%
    07:00 +16°C° 0.4 mm 1 mps 745 mmHg 96%
    08:00 +18°C° 0.4 mm 1 mps 745 mmHg 96%
    09:00 +19°C° 0.4 mm 1 mps 745 mmHg 96%
    10:00 +20°C° 0.5 mm 1 mps 745 mmHg 90%
    11:00 +22°C° 0.5 mm 1 mps 745 mmHg 84%
    12:00 +24°C° 0.5 mm 1 mps 745 mmHg 79%
    13:00 +23°C° 1 mm 1 mps 745 mmHg 81%
    14:00 +23°C° 1 mm 1 mps 745 mmHg 83%
    15:00 +23°C° 1 mm 2 mps 745 mmHg 85%
    16:00 +22°C° 0.2 mm 1 mps 745 mmHg 87%
    17:00 +21°C° 0.2 mm 1 mps 745 mmHg 89%
    18:00 +21°C° 0.2 mm 1 mps 745 mmHg 91%
    19:00 +20°C° 0.1 mm 1 mps 746 mmHg 93%
    20:00 +18°C° 0.1 mm 1 mps 746 mmHg 95%
    21:00 +16°C° 0.1 mm 1 mps 747 mmHg 97%
    22:00 +16°C° 0 mm 1 mps 747 mmHg 97%
    23:00 +16°C° 0 mm 1 mps 747 mmHg 97%
    Show more